METAR LSZS 201350Z 31010KT 9999 FEW070 SCT130 07/M02 Q1020 RMK
Diese Daten sind ohne Gewähr und dürfen nicht für die Flugvorbereitung verwendet werden.
Information contained in this website shall not be used for flight operation purposes.